COSMOS 2251 DEB, 34582

Orbit data source: Space-Track

COSMOS 2251 DEB, 34582 is space debris in LEO originally from a launch on Wed, 16 Jun 1993 UTC launched from the Plesetsk Missile And Space Complex (PKMTR). The debris from Iridium 33, an American commercial communications satellite, has been tracked extensively since its accidental collision with the defunct Russian satellite Cosmos 2251 in 2009. This event, occurring at high speed in low Earth orbit (LEO), generated thousands of pieces of space debris, significantly increasing the risk of further collisions. The Iridium 33 debris cloud has impacted space traffic management and orbital debris mitigation strategies, making it a subject of ongoing study in space situational awareness.

Loading next visibility...
Identifier
34582, 1993-036VU
Orbit
LEO
Country
Flag of CISCIS
Related business
Manufacturer
Unknown
Mission
Spacecraft
Bus & Motor
Unknown
Mass
Unknown
Launch date (UTC)
1993-06-16 (33 years ago)
Launch vehicle
Unknown
Launch site
Plesetsk Missile And Space Complex (PKMTR)
Object type
Payload
Rocket body
Debris
Shape & HBR
Unknown shape, 0.1 m
Radar Cross Section
Medium (>0.1 m² and <1 m²)

Expand to show TLE details & history
Last TLE update: 1 day ago

TLE from 1 day ago
0 COSMOS 2251 DEB
1 34582U 93036VU  26207.33927145  .00001415  00000-0  41427-3 0  9996
2 34582  74.0163 212.4991 0050652 270.3461  89.1892 14.44139375912037
Epoch: 2026-07-26T08:08Z
TLE epoch observation values (Epoch: 2026-07-26T08:08:33.053Z)
Latitude
-0.00001°
Longitude
146.32276°
Altitude
747.147 km
Speed
7.481 km/s
True Right ascension
14h 09m 59s
True Declination
0° 00' 00"
Sunlit
Object was in daylight at epoch
Visualization orbit readout
Latitude
Unknown
Longitude
Unknown
Altitude
Unknown
Speed
Unknown
Apparent Right ascension
Unknown
Apparent Declination
Unknown
Sunlit
N/A
Visualization observer readout
Local Sidereal Time
00:02:05
Azimuth
Unknown
Elevation
Unknown
Doppler factor
Unknown
Orbital elements
Apogee altitude
778.539 km
Perigee altitude
706.404 km
Semi-major axis
7,120.608 km
Eccentricity
0.00507
Inclination
74.0163°
RAAN
212.4991°
Arg. of periapsis
270.3461°
True anomaly
89.76961°
Mean anomaly
89.1892°
Eccentric anomaly
89.4794°
Mean motion
3.61216 °/min
Orbital period
99.66 mins
BSTAR
0.00041427
Loading maneuver chart data...
Computing Atmospheric mass density...

Documentation

Showing up to 5 results
|